Lamoni Municipal Airport
Sunday 2:53 PM
Temperature67° (69°/57°)
Dew Point54°
Relative Humidity63
%
Visibility10
mi
Pressure1024.4
mb
Wind DirectionSSE
160°
Wind Speed6
mph
Precipitation Today0.00"

Last 30 Observations

Time PresWx Temp DP Feels RH% Vsby Pressure Ceiling Direction Speed 1h Precip
2:53 PM 67° 54° 63
%
10
mi
1024.4
mb
6,500
ft
SSE
160°
6
mph
0.00"
1:53 PM 66° 53° 63
%
10
mi
1025.1
mb
6,000
ft
SSE
160°
3
mph
0.00"
12:53 PM 66° 52° 61
%
10
mi
1025.4
mb
5,500
ft
SSE
150°
7
mph
0.00"
11:53 AM 68° 53° 59
%
10
mi
1025.7
mb
S
170°
10
mph
0.00"
10:53 AM 65° 50° 58
%
10
mi
1026.1
mb
11,000
ft
SSE
150°
9
mph
0.00"
9:53 AM 64° 51° 63
%
10
mi
1026.4
mb
10,000
ft
SSE
150°
7
mph
0.00"
8:53 AM 62° 52° 70
%
10
mi
1026.1
mb
6,500
ft
ESE
120°
7
mph
0.00"
7:53 AM 60° 55° 83
%
10
mi
1025.7
mb
7,000
ft
ESE
110°
3
mph
0.00"
6:53 AM 58° 55° 90
%
10
mi
1025.4
mb
7,500
ft
E
90°
3
mph
0.00"
5:53 AM 59° 54° 83
%
10
mi
1024.4
mb
6,500
ft
E
80°
3
mph
0.00"
4:53 AM 58° 54° 87
%
10
mi
1024.1
mb
11,000
ft
E
90°
3
mph
0.00"
3:53 AM 58° 56° 93
%
10
mi
1024.7
mb
11,000
ft
NE
50°
6
mph
0.00"
2:53 AM 58° 56° 93
%
10
mi
1024.7
mb
11,000
ft
NE
40°
3
mph
0.00"
1:53 AM 58° 55° 90
%
10
mi
1024.4
mb
10,000
ft
ENE
70°
3
mph
0.00"
12:53 AM 59° 55° 87
%
10
mi
1024.7
mb
8,000
ft
Calm 0.00"
11:53 PM 58° 56° 93
%
10
mi
1024.4
mb
WNW
300°
3
mph
0.00"
10:53 PM 59° 56° 90
%
10
mi
1024.4
mb
10,000
ft
W
280°
3
mph
0.00"
9:53 PM 59° 56° 90
%
10
mi
1024.4
mb
9,500
ft
NW
310°
3
mph
0.00"
8:53 PM 60° 56° 86
%
10
mi
1024.1
mb
9,000
ft
WNW
300°
5
mph
0.00"
7:53 PM 61° 55° 81
%
10
mi
1023.7
mb
11,000
ft
WNW
290°
5
mph
0.00"
6:53 PM 61° 55° 81
%
10
mi
1024.1
mb
11,000
ft
NW
310°
7
mph
0.00"
5:53 PM 62° 54° 75
%
10
mi
1024.1
mb
W
260°
5
mph
0.00"
4:53 PM 62° 55° 78
%
10
mi
1024.4
mb
WSW
250°
6
mph
0.00"
3:53 PM -RA 62° 55° 78
%
10
mi
1024.4
mb
4,600
ft
WSW
250°
7
mph
0.00"
2:53 PM -RA 62° 53° 72
%
10
mi
1025.4
mb
9,000
ft
W
260°
8
mph
Trace
1:53 PM 64° 53° 67
%
10
mi
1025.4
mb
11,000
ft
NW
310°
3
mph
0.00"
12:53 PM -RA 64° 54° 70
%
10
mi
1024.7
mb
6,000
ft
Calm Trace
11:53 AM -RA 62° 56° 80
%
10
mi
1024.7
mb
9,500
ft
NNE
20°
3
mph
Trace
10:53 AM 63° 55° 75
%
10
mi
1025.4
mb
9,000
ft
N
10°
7
mph
0.00"
9:53 AM 64° 52° 65
%
10
mi
1025.4
mb
WNW
290°
5
mph
0.00"